Location: Newark
(37.8333°N, 119.5000°W)
Time: 22:51:38
(UTC+00:00)

Tiros 1 despin weight - Pass Details

Date: 27 August 2019
Orbit: 594 x 642 km, 48.2° (Epoch: 20 September)

Event Time Altitude Azimuth Distance (km) Brightness Sun altitude
Rises 04:39:50 0° 218° (SW) 2,814 ? -23.1°
Reaches altitude 10° 04:42:10 10° 211° (SSW) 1,916 ? -23.4°
Enters shadow 04:42:13 10° 211° (SSW) 1,899 ? -23.4°
